| time (UTC) | temp F | wind direction | speed MPH | gust MPH | rain 1hr in | rain 24hr in | rain mn in | humidity % | barometer mb |
| 20260502170521 | 62 | 271 | 7.0 | 11.0 | 0.00 | 0.06 | 0.00 | 50 | 1023.9 |
| 20260502163521 | 60 | 318 | 3.0 | 5.0 | 0.00 | 0.06 | 0.00 | 52 | 1024.0 |
| 20260502162521 | 60 | 261 | 4.0 | 8.0 | 0.00 | 0.06 | 0.00 | 55 | 1024.1 |
| 20260502161541 | 59 | 245 | 3.0 | 7.0 | 0.00 | 0.07 | 0.00 | 55 | 1024.1 |
| 20260502160523 | 59 | 246 | 2.0 | 6.0 | 0.00 | 0.07 | 0.00 | 57 | 1024.1 |
| 20260502151518 | 57 | 29 | 1.0 | 3.0 | 0.00 | 0.08 | 0.00 | 60 | 1024.0 |
| 20260502150521 | 57 | 283 | 1.0 | 3.0 | 0.00 | 0.09 | 0.00 | 59 | 1024.0 |
| 20260502130521 | 49 | 8 | 4.0 | 6.0 | 0.00 | 0.17 | 0.00 | 77 | 1023.0 |
| 20260502123521 | 48 | 350 | 3.0 | 4.0 | 0.00 | 0.18 | 0.00 | 80 | 1022.5 |
| 20260502122541 | 48 | 4 | 3.0 | 5.0 | 0.00 | 0.18 | 0.00 | 81 | 1022.4 |
| 20260502121521 | 47 | 357 | 2.0 | 4.0 | 0.00 | 0.19 | 0.00 | 81 | 1022.3 |
| 20260502120523 | 47 | 360 | 3.0 | 5.0 | 0.00 | 0.19 | 0.00 | 81 | 1022.3 |
| 20260502115519 | 47 | 1 | 3.0 | 4.0 | 0.00 | 0.19 | 0.00 | 82 | 1022.3 |
| 20260502113518 | 47 | 354 | 3.0 | 5.0 | 0.00 | 0.19 | 0.00 | 83 | 1022.2 |
| 20260502112544 | 47 | 359 | 3.0 | 5.0 | 0.00 | 0.20 | 0.00 | 84 | 1022.1 |
| 20260502111519 | 48 | 346 | 4.0 | 5.0 | 0.00 | 0.20 | 0.00 | 84 | 1022.1 |
| 20260502110535 | 48 | 348 | 3.0 | 5.0 | 0.00 | 0.20 | 0.00 | 85 | 1022.0 |
| 20260502105521 | 48 | 343 | 4.0 | 5.0 | 0.00 | 0.20 | 0.00 | 84 | 1021.8 |
| 20260502104520 | 49 | 337 | 3.0 | 4.0 | 0.00 | 0.20 | 0.00 | 85 | 1021.8 |
| 20260502103521 | 49 | 343 | 3.0 | 3.0 | 0.00 | 0.21 | 0.00 | 85 | 1021.7 |
| 20260502102540 | 49 | 346 | 2.0 | 4.0 | 0.00 | 0.21 | 0.00 | 86 | 1021.7 |
| 20260502101519 | 49 | 339 | 3.0 | 5.0 | 0.00 | 0.21 | 0.00 | 85 | 1021.7 |
| 20260502100520 | 50 | 333 | 3.0 | 5.0 | 0.00 | 0.21 | 0.00 | 85 | 1021.7 |
| 20260502090520 | 51 | 338 | 2.0 | 3.0 | 0.00 | 0.21 | 0.00 | 72 | 1021.2 |
| 20260502071519 | 50 | 247 | 0.0 | 1.0 | 0.00 | 0.21 | 0.00 | 77 | 1021.8 |
| 20260502070519 | 50 | 0 | 0.0 | 0.0 | 0.00 | 0.21 | 0.00 | 76 | 1021.8 |
| 20260502065520 | 50 | 163 | 0.0 | 1.0 | 0.00 | 0.21 | 0.00 | 75 | 1021.7 |
| 20260502064523 | 50 | 134 | 0.0 | 2.0 | 0.00 | 0.21 | 0.00 | 74 | 1021.7 |
| 20260502063521 | 51 | 129 | 0.0 | 2.0 | 0.00 | 0.21 | 0.00 | 71 | 1021.6 |
| 20260502062523 | 51 | 117 | 1.0 | 2.0 | 0.00 | 0.21 | 0.00 | 72 | 1021.6 |
| 20260502061520 | 51 | 136 | 0.0 | 2.0 | 0.00 | 0.21 | 0.00 | 72 | 1021.7 |
| 20260502060521 | 51 | 85 | 0.0 | 0.0 | 0.00 | 0.21 | 0.00 | 73 | 1021.7 |
| 20260502055521 | 51 | 49 | 0.0 | 1.0 | 0.00 | 0.21 | 0.00 | 74 | 1021.7 |
| 20260502054521 | 51 | 43 | 0.0 | 1.0 | 0.00 | 0.21 | 0.00 | 73 | 1021.7 |
| 20260502053523 | 51 | 0 | 0.0 | 0.0 | 0.00 | 0.21 | 0.00 | 72 | 1021.8 |
| 20260502052524 | 51 | 353 | 0.0 | 0.0 | 0.00 | 0.21 | 0.00 | 72 | 1021.8 |
| 20260502051521 | 51 | 337 | 0.0 | 1.0 | 0.00 | 0.21 | 0.00 | 72 | 1021.7 |
| 20260502050522 | 51 | 321 | 0.0 | 1.0 | 0.00 | 0.21 | 0.00 | 73 | 1021.6 |
| 20260502045522 | 51 | 356 | 1.0 | 2.0 | 0.00 | 0.21 | 0.21 | 72 | 1021.4 |
| 20260502043519 | 51 | 15 | 0.0 | 3.0 | 0.00 | 0.21 | 0.21 | 74 | 1021.1 |
| 20260502042541 | 51 | 14 | 2.0 | 3.0 | 0.00 | 0.21 | 0.21 | 77 | 1020.8 |
| 20260502041519 | 52 | 0 | 0.0 | 0.0 | 0.00 | 0.21 | 0.21 | 76 | 1020.6 |
| 20260502040519 | 52 | 347 | 0.0 | 1.0 | 0.00 | 0.21 | 0.21 | 74 | 1020.6 |
| 20260502035519 | 52 | 356 | 1.0 | 2.0 | 0.00 | 0.21 | 0.21 | 72 | 1020.6 |
| 20260502034541 | 52 | 344 | 1.0 | 3.0 | 0.00 | 0.21 | 0.21 | 71 | 1020.6 |
| 20260502033519 | 52 | 352 | 0.0 | 2.0 | 0.00 | 0.21 | 0.21 | 70 | 1020.4 |
| 20260502032520 | 52 | 316 | 0.0 | 0.0 | 0.00 | 0.21 | 0.21 | 70 | 1020.2 |
| 20260502031519 | 53 | 0 | 0.0 | 0.0 | 0.00 | 0.21 | 0.21 | 67 | 1019.9 |
| 20260502030520 | 53 | 0 | 0.0 | 0.0 | 0.00 | 0.21 | 0.21 | 65 | 1019.6 |
| 20260502025541 | 54 | 331 | 0.0 | 0.0 | 0.00 | 0.21 | 0.21 | 60 | 1019.5 |
| 20260502024521 | 54 | 149 | 0.0 | 1.0 | 0.00 | 0.21 | 0.21 | 59 | 1019.3 |
| 20260502023520 | 55 | 0 | 0.0 | 0.0 | 0.00 | 0.21 | 0.21 | 58 | 1019.1 |
| 20260502022543 | 55 | 132 | 0.0 | 2.0 | 0.00 | 0.21 | 0.21 | 54 | 1019.0 |
| 20260502021520 | 56 | 143 | 0.0 | 2.0 | 0.00 | 0.21 | 0.21 | 53 | 1018.9 |
| 20260502020521 | 56 | 118 | 1.0 | 3.0 | 0.00 | 0.21 | 0.21 | 44 | 1018.7 |
| 20260502015522 | 56 | 132 | 1.0 | 4.0 | 0.00 | 0.21 | 0.21 | 51 | 1018.8 |
| 20260502014520 | 55 | 52 | 0.0 | 1.0 | 0.00 | 0.21 | 0.21 | 54 | 1019.0 |
| 20260502013524 | 56 | 47 | 0.0 | 0.0 | 0.00 | 0.21 | 0.21 | 54 | 1019.0 |
| 20260502012519 | 56 | 0 | 0.0 | 0.0 | 0.00 | 0.21 | 0.21 | 54 | 1018.8 |
| 20260502011518 | 56 | 63 | 1.0 | 3.0 | 0.00 | 0.21 | 0.21 | 50 | 1018.8 |
| 20260502010519 | 57 | 58 | 1.0 | 3.0 | 0.00 | 0.21 | 0.21 | 47 | 1018.8 |
| 20260502005522 | 56 | 51 | 3.0 | 8.0 | 0.00 | 0.21 | 0.21 | 46 | 1018.7 |
| 20260502004519 | 56 | 36 | 3.0 | 5.0 | 0.00 | 0.21 | 0.21 | 48 | 1018.6 |
| 20260502003542 | 56 | 75 | 1.0 | 3.0 | 0.00 | 0.21 | 0.21 | 51 | 1018.5 |
| 20260502002520 | 57 | 47 | 1.0 | 3.0 | 0.00 | 0.21 | 0.21 | 49 | 1018.5 |
| 20260502001540 | 57 | 84 | 2.0 | 6.0 | 0.00 | 0.21 | 0.21 | 48 | 1018.3 |
| 20260502000521 | 56 | 77 | 2.0 | 4.0 | 0.00 | 0.21 | 0.21 | 50 | 1018.2 |
| 20260501235539 | 56 | 46 | 1.0 | 2.0 | 0.00 | 0.21 | 0.21 | 58 | 1018.2 |
| 20260501234520 | 56 | 121 | 0.0 | 2.0 | 0.00 | 0.21 | 0.21 | 57 | 1018.1 |
| 20260501233520 | 56 | 122 | 0.0 | 2.0 | 0.00 | 0.21 | 0.21 | 62 | 1018.1 |
| 20260501232521 | 56 | 97 | 0.0 | 1.0 | 0.00 | 0.21 | 0.21 | 62 | 1017.9 |
| 20260501231521 | 55 | 0 | 0.0 | 0.0 | 0.00 | 0.21 | 0.21 | 65 | 1017.9 |
| 20260501230521 | 55 | 122 | 0.0 | 2.0 | 0.01 | 0.21 | 0.21 | 68 | 1017.7 |
| 20260501225521 | 54 | 104 | 0.0 | 1.0 | 0.01 | 0.21 | 0.21 | 70 | 1017.6 |
| 20260501224521 | 54 | 81 | 0.0 | 3.0 | 0.01 | 0.21 | 0.21 | 70 | 1017.5 |
| 20260501223521 | 54 | 76 | 1.0 | 4.0 | 0.01 | 0.21 | 0.21 | 70 | 1017.2 |
| 20260501222519 | 54 | 54 | 1.0 | 2.0 | 0.01 | 0.21 | 0.21 | 79 | 1017.1 |
| 20260501221522 | 54 | 63 | 1.0 | 2.0 | 0.01 | 0.21 | 0.21 | 80 | 1017.0 |
| 20260501220518 | 54 | 92 | 1.0 | 4.0 | 0.01 | 0.21 | 0.20 | 80 | 1016.9 |
| 20260501215521 | 55 | 93 | 2.0 | 4.0 | 0.00 | 0.21 | 0.20 | 77 | 1016.8 |
| 20260501214519 | 55 | 100 | 2.0 | 4.0 | 0.00 | 0.20 | 0.20 | 76 | 1016.9 |
| 20260501213527 | 55 | 95 | 3.0 | 6.0 | 0.00 | 0.20 | 0.20 | 74 | 1016.9 |
| 20260501212520 | 55 | 89 | 4.0 | 7.0 | 0.00 | 0.20 | 0.20 | 73 | 1016.8 |
| 20260501211529 | 55 | 94 | 4.0 | 7.0 | 0.00 | 0.20 | 0.20 | 73 | 1016.8 |
| 20260501210540 | 55 | 89 | 4.0 | 6.0 | 0.00 | 0.20 | 0.20 | 73 | 1016.9 |
| 20260501205520 | 55 | 92 | 4.0 | 7.0 | 0.00 | 0.20 | 0.20 | 75 | 1017.1 |
| 20260501204522 | 54 | 89 | 4.0 | 7.0 | 0.00 | 0.20 | 0.20 | 73 | 1017.3 |
| 20260501203521 | 55 | 87 | 5.0 | 9.0 | 0.00 | 0.20 | 0.20 | 70 | 1017.3 |
| 20260501202544 | 55 | 91 | 5.0 | 8.0 | 0.01 | 0.20 | 0.20 | 67 | 1017.4 |
| 20260501201520 | 55 | 95 | 6.0 | 9.0 | 0.01 | 0.21 | 0.20 | 65 | 1017.3 |
| 20260501200523 | 54 | 97 | 7.0 | 10.0 | 0.01 | 0.20 | 0.20 | 69 | 1017.3 |
| 20260501195602 | 54 | 103 | 7.0 | 11.0 | 0.01 | 0.20 | 0.19 | 72 | 1017.5 |
| 20260501194522 | 55 | 96 | 7.0 | 11.0 | 0.01 | 0.20 | 0.19 | 74 | 1017.4 |
| 20260501193531 | 54 | 98 | 8.0 | 10.0 | 0.01 | 0.20 | 0.19 | 73 | 1017.3 |
| 20260501192522 | 53 | 90 | 7.0 | 13.0 | 0.01 | 0.20 | 0.19 | 76 | 1017.2 |
| 20260501191522 | 53 | 101 | 6.0 | 11.0 | 0.01 | 0.20 | 0.19 | 75 | 1017.5 |
| 20260501190519 | 53 | 105 | 6.0 | 9.0 | 0.02 | 0.20 | 0.19 | 76 | 1017.6 |
| 20260501185519 | 53 | 104 | 6.0 | 11.0 | 0.03 | 0.20 | 0.19 | 75 | 1017.7 |
| 20260501184522 | 53 | 108 | 6.0 | 10.0 | 0.03 | 0.20 | 0.19 | 74 | 1018.0 |
| 20260501183519 | 53 | 110 | 5.0 | 8.0 | 0.03 | 0.19 | 0.18 | 74 | 1018.0 |
| 20260501182539 | 53 | 108 | 6.0 | 10.0 | 0.02 | 0.19 | 0.18 | 75 | 1018.1 |
| 20260501181519 | 52 | 114 | 6.0 | 10.0 | 0.02 | 0.19 | 0.18 | 76 | 1018.3 |
| 20260501180520 | 53 | 113 | 7.0 | 11.0 | 0.02 | 0.18 | 0.17 | 75 | 1018.3 |
| 20260501175520 | 52 | 110 | 7.0 | 10.0 | 0.01 | 0.17 | 0.16 | 74 | 1018.3 |
| 20260501174520 | 52 | 111 | 6.0 | 8.0 | 0.01 | 0.17 | 0.16 | 77 | 1018.5 |
| 20260501173520 | 51 | 103 | 8.0 | 12.0 | 0.01 | 0.17 | 0.16 | 78 | 1018.4 |
| 20260501172540 | 51 | 102 | 6.0 | 10.0 | 0.01 | 0.16 | 0.15 | 81 | 1018.7 |